Вернуться в каталог

STARLINK-32926

АктивенСвязьVLEO
NORAD 63025·PAYLOAD·🇺🇸 United States

Запущен Feb 15, 2025 с Cape Canaveral Space Force Station

Loading…

Ближайшие Пролёты (ближайшие 24 часа)

TLE

СвежийSource: CelesTrak SupGP

Эпоха: Sep 15, 2026, 02:20 UTC

1 63025C 25032W   26258.09770833  .00035044  00000+0  12692-2 0  2583
2 63025  43.0041 346.0671 0002125 294.9642 328.7341 15.27561865    18

Отслеживайте STARLINK-32926 в реальном времени с AllMySat

Download on the App Store